STARLINK-30151, 56827

Orbit data source: Space-Track

STARLINK-30151, 56827 is a payload satellite owned by SpaceX/Seattle (US) in LEO that was launched on Sun, 04 Jun 2023 UTC via an FALCON 9 launch vehicle from the Air Force Eastern Test Range (AFETR). Payload-class satellites include a variety of spacecraft equipped with specific instruments for various scientific and technological missions. These include communications satellites like Starlink; space stations such as the ISS; scientific satellites like the Hubble; Earth observation satellites from companies like Planet Labs, Umbra, and HawkEye 360; GPS; miniature CubeSats for education and research; and military/defense satellites.

Loading next visibility...
Identifier
56827, 2023-079E
Orbit
LEO
Country
Flag of USUS
Related business
Manufacturer
SpaceX/Seattle
Mission
Operational Commercial Communications
Bus & Motor
STARLINK V2M, Unknown motor
Mass
730 kg wet, ~700 kg dry
Launch date (UTC)
2023-06-04 (3 years ago)
Launch vehicle
FALCON 9
Launch site
Air Force Eastern Test Range (AFETR)
Object type
Payload
Rocket body
Debris
Shape & HBR
Box + 2 Pan, 17.7 m
Radar Cross Section
33.884 m², Large (>1 m²)

Expand to show TLE details & history
Last TLE update: 2 days ago

TLE from 2 days ago
0 STARLINK-30151
1 56827U 23079E   26171.25169164  .00012131  00000-0  45083-3 0  9991
2 56827  43.0015 247.8405 0001535 266.1540  93.9136 15.27491352168578
Epoch: 2026-06-20T06:02Z
TLE epoch observation values (Epoch: 2026-06-20T06:02:26.157Z)
Latitude
-0.00004°
Longitude
-111.23752°
Altitude
483.162 km
Speed
7.626 km/s
True Right ascension
16h 31m 21s
True Declination
0° 00' 00"
Sunlit
Object was in full shadow at epoch
Visualization orbit readout
Latitude
Unknown
Longitude
Unknown
Altitude
Unknown
Speed
Unknown
Apparent Right ascension
Unknown
Apparent Declination
Unknown
Sunlit
N/A
Visualization observer readout
Local Sidereal Time
21:31:01
Azimuth
Unknown
Elevation
Unknown
Doppler factor
Unknown
Orbital elements
Apogee altitude
486.313 km
Perigee altitude
484.206 km
Semi-major axis
6,863.396 km
Eccentricity
0.00015
Inclination
43.0015°
RAAN
247.8405°
Arg. of periapsis
266.154°
True anomaly
93.93115°
Mean anomaly
93.9136°
Eccentric anomaly
93.92237°
Mean motion
3.81711 °/min
Orbital period
94.31 mins
BSTAR
0.00045083
Loading maneuver chart data...
Computing Atmospheric mass density...
Loading historical data...
Loading historical data...
Loading historical data...
Loading historical data...
Loading historical data...
Loading historical data...
Loading historical data...

Documentation

Showing up to 5 results
|